Caslav, Czech Republic

11:15 AM CET on December 17, 2017 (GMT +0100)
Caslav

Weather History for LKCV - October, 2012

Change the Weather History Date:

Tuesday, October 16, 2012

  Actual Average Record
Temperature  
Mean Temperature 46 °F -  
Max Temperature 50 °F - - ()
Min Temperature 42 °F - - ()
Degree Days  
Heating Degree Days 19    
Moisture  
Dew Point 43 °F    
Average Humidity 90    
Maximum Humidity 100    
Minimum Humidity 81    
Precipitation  
Precipitation 0.00 in - - ()
Sea Level Pressure  
Sea Level Pressure 29.91 in    
Wind  
Wind Speed 2 mph ()    
Max Wind Speed 8 mph    
Max Gust Speed -    
Visibility 5.7 miles    
Events Rain    
T = Trace of Precipitation, MM = Missing Value Source: Averaged Metar Reports

Daily Weather History Graph

Daily Weather History Graph

Search for Another Location

Airport or City:

Trip Planner

Search our weather history database for the weather conditions in past years. The results will help you decide how hot, cold, wet, or windy it might be!

Date:

Astronomy

Oct. 16, 2012 Rise Set
Actual Time 7:22 AM CEST 6:04 PM CEST
Civil Twilight 6:49 AM CEST 6:37 PM CEST
Nautical Twilight 6:12 AM CEST 7:14 PM CEST
Astronomical Twilight 5:34 AM CEST 7:52 PM CEST
Moon 8:34 AM CEST (10/16) 6:22 PM CEST (10/16)
Length of Visible Light 11h 47m
Length of Day
10h 42m
New Moon, 1% of the Moon is Illuminated
Oct 16
New Moon
Oct 22
First Quarter
Oct 29
Full
Nov 7
Last Quarter
Nov 13
New

Hourly Weather History & Observations

Time (CEST) Temp. Windchill Dew Point Humidity Pressure Visibility Wind Dir Wind Speed Gust Speed Precip Events Conditions
12:00 AM 46.4 °F - 41.0 °F 81% 29.92 in - Calm Calm - N/A   Clear
1:00 AM 46.4 °F - 42.8 °F 87% 29.95 in - Calm Calm - N/A   Clear
2:00 AM 46.4 °F - 42.8 °F 87% 29.95 in 6.2 mi SE 2.3 mph - N/A Rain Light Rain
3:00 AM 44.6 °F - 42.8 °F 93% 29.95 in 6.2 mi Calm Calm - N/A Rain Light Rain
4:00 AM 44.6 °F - 42.8 °F 93% 29.92 in 6.2 mi Calm Calm - N/A Rain Light Rain
5:00 AM 44.6 °F - 42.8 °F 93% 29.92 in 6.2 mi Calm Calm - N/A Rain Light Rain
6:00 AM 44.6 °F - 42.8 °F 93% 29.92 in 6.2 mi ESE 1.2 mph - N/A Rain Light Rain
7:00 AM 44.6 °F - 44.6 °F 100% 29.92 in 6.2 mi South 1.2 mph - N/A Rain Light Rain
8:00 AM 44.6 °F - 44.6 °F 100% 29.92 in 5.0 mi Calm Calm - N/A Rain Light Rain
9:00 AM 44.6 °F - 44.6 °F 100% 29.92 in 4.3 mi WSW 2.3 mph - N/A Rain Light Rain
10:00 AM 44.6 °F - 42.8 °F 93% 29.92 in 4.3 mi Variable 2.3 mph - N/A Rain Light Rain
11:00 AM 46.4 °F - 42.8 °F 87% 29.92 in 5.0 mi WNW 2.3 mph - N/A Rain Light Rain
12:00 PM 46.4 °F 44.3 °F 42.8 °F 87% 29.92 in 5.0 mi WNW 4.6 mph - N/A Rain Light Rain
1:00 PM 46.4 °F 42.4 °F 44.6 °F 93% 29.92 in 5.0 mi WNW 8.1 mph - N/A Rain Light Rain
2:00 PM 48.2 °F - 44.6 °F 87% 29.89 in 6.2 mi WNW 5.8 mph - N/A   Overcast
3:00 PM 48.2 °F - 44.6 °F 87% 29.89 in 6.2 mi West 5.8 mph - N/A   Overcast
4:00 PM 50.0 °F - 44.6 °F 82% 29.89 in - WNW 4.6 mph - N/A   Clear
5:00 PM 48.2 °F - 44.6 °F 87% 29.89 in - Calm Calm - N/A   Clear
6:00 PM 50.0 °F - 44.6 °F 82% 29.86 in - SE 3.5 mph - N/A   Clear
7:00 PM 46.4 °F - 44.6 °F 93% 29.89 in 6.2 mi SW 2.3 mph - N/A   Mostly Cloudy
8:00 PM 46.4 °F 43.5 °F 42.8 °F 87% 29.89 in 6.2 mi SW 5.8 mph - N/A   Mostly Cloudy
9:00 PM 42.8 °F 39.3 °F 41.0 °F 93% 29.92 in - SW 5.8 mph - N/A   Clear
10:00 PM 42.8 °F 39.3 °F 41.0 °F 93% 29.92 in - SW 5.8 mph - N/A   Clear
11:00 PM 42.8 °F 39.3 °F 39.2 °F 87% 29.95 in - SSW 5.8 mph - N/A   Clear